Bluefield, WV

5:01 PM EST on February 27, 2017 (GMT -0500)
Mercer County

Weather History for KBLF - March, 2012

Change the Weather History Date:

Monday, March 19, 2012

  Actual Average Record
Temperature  
Mean Temperature 70 °F 46 °F  
Max Temperature 80 °F 55 °F 80 °F (2012)
Min Temperature 59 °F 37 °F 17 °F (1967)
Degree Days  
Heating Degree Days 0 19  
Month to date heating degree days 222 413  
Since 1 July heating degree days 3213 3906  
Cooling Degree Days 5 0  
Month to date cooling degree days 6 0  
Year to date cooling degree days 6 0  
Growing Degree Days 20 (Base 50)    
Moisture  
Dew Point 48 °F    
Average Humidity 50    
Maximum Humidity 72    
Minimum Humidity 28    
Precipitation  
Precipitation 0.00 in 0.11 in 1.26 in (1975)
Month to date precipitation 3.17 2.13  
Year to date precipitation 10.99 7.79  
Snow  
Snow 0.00 in - - ()
Month to date snowfall 3.7  
Since 1 July snowfall 23.0  
Snow Depth 0.00 in    
Sea Level Pressure  
Sea Level Pressure 30.14 in    
Wind  
Wind Speed 5 mph (West)    
Max Wind Speed 13 mph    
Max Gust Speed 18 mph    
Visibility 10 miles    
Events      
T = Trace of Precipitation, MM = Missing Value Source: NWS Daily Summary

Daily Weather History Graph

Daily Weather History Graph

Search for Another Location

Airport or City:

Trip Planner

Search our weather history database for the weather conditions in past years. The results will help you decide how hot, cold, wet, or windy it might be!

Date:

Astronomy

Mar. 19, 2012 Rise Set
Actual Time 7:29 AM EDT 7:36 PM EDT
Civil Twilight 7:03 AM EDT 8:02 PM EDT
Nautical Twilight 6:32 AM EDT 8:32 PM EDT
Astronomical Twilight 6:02 AM EDT 9:03 PM EDT
Moon 5:37 AM EDT (3/19) 5:05 PM EDT (3/19)
Length of Visible Light 12h 59m
Length of Day
12h 07m
Waning Crescent, 8% of the Moon is Illuminated
Mar 19
Waning Crescent
Mar 22
New
Mar 30
First Quarter
Apr 6
Full
Apr 13
Last Quarter

Hourly Weather History & Observations

Time (EDT) Temp. Dew Point Humidity Pressure Visibility Wind Dir Wind Speed Gust Speed Precip Events Conditions
12:52 AM 61.0 °F 52.0 °F 72% 30.17 in 10.0 mi South 3.5 mph - N/A   Clear
1:52 AM 62.1 °F 51.1 °F 67% 30.16 in 10.0 mi SW 3.5 mph - N/A   Mostly Cloudy
2:52 AM 62.1 °F 51.1 °F 67% 30.15 in 10.0 mi Calm Calm - N/A   Overcast
3:52 AM 60.1 °F 50.0 °F 69% 30.14 in 10.0 mi WSW 5.8 mph - N/A   Partly Cloudy
4:52 AM 60.1 °F 50.0 °F 69% 30.13 in 10.0 mi West 5.8 mph - N/A   Mostly Cloudy
5:52 AM 60.1 °F 50.0 °F 69% 30.14 in 10.0 mi West 4.6 mph - N/A   Mostly Cloudy
6:52 AM 60.1 °F 50.0 °F 69% 30.14 in 10.0 mi WSW 6.9 mph - N/A   Overcast
8:52 AM 62.1 °F 52.0 °F 70% 30.19 in 10.0 mi WSW 5.8 mph - N/A   Partly Cloudy
9:52 AM 60.1 °F 52.0 °F 75% 30.23 in 10.0 mi ENE 4.6 mph - N/A   Overcast
11:52 AM 70.0 °F 51.1 °F 51% 30.19 in 10.0 mi NNE 3.5 mph - N/A   Clear
12:52 PM 73.9 °F 48.0 °F 40% 30.16 in 10.0 mi Variable 5.8 mph - N/A   Clear
1:52 PM 75.9 °F 44.1 °F 32% 30.14 in 10.0 mi NW 9.2 mph - N/A   Clear
2:52 PM 77.0 °F 45.0 °F 32% 30.11 in 10.0 mi Variable 6.9 mph - N/A   Clear
3:52 PM 79.0 °F 44.1 °F 29% 30.09 in 10.0 mi Variable 4.6 mph - N/A   Scattered Clouds
4:52 PM 78.1 °F 42.1 °F 28% 30.08 in 10.0 mi WNW 4.6 mph - N/A   Partly Cloudy
5:52 PM 75.9 °F 43.0 °F 31% 30.08 in 10.0 mi WNW 4.6 mph - N/A   Partly Cloudy
6:52 PM 78.1 °F 43.0 °F 29% 30.08 in 10.0 mi Calm Calm - N/A   Mostly Cloudy
7:52 PM 73.0 °F 43.0 °F 34% 30.10 in 10.0 mi Calm Calm - N/A   Overcast
8:52 PM 72.0 °F 46.0 °F 40% 30.12 in 10.0 mi West 6.9 mph - N/A   Overcast
9:52 PM 68.0 °F 46.0 °F 45% 30.14 in 10.0 mi West 5.8 mph - N/A   Clear
10:52 PM 66.9 °F 46.0 °F 47% 30.14 in 10.0 mi WSW 5.8 mph - N/A   Clear
11:52 PM 66.0 °F 46.0 °F 48% 30.13 in 10.0 mi WSW 5.8 mph - N/A   Clear